Regional Weather Roundup
Issued by NWS

Home | Current Version | Previous Version | Text Only | Print | Product List | Glossary Off
Versions: 1 2 3 4 5 6 7 8 9 10 11 12 13 14 15 16 17 18 19 20 21 22 23 24 25 26 27 28 29 30 31 32 33 34 35 36 37 38 39 40 41 42 43 44 45 46 47 48 49 50

000
ASUS43 KLSX 280910
RWRMO

WEATHER SUMMARY FOR MISSOURI
NATIONAL WEATHER SERVICE SPRINGFIELD MO
400 AM CDT FRI AUG 28 2015

NOTE: "FAIR" INDICATES FEW OR NO CLOUDS BELOW 12,000 FEET WITH NO
       SIGNIFICANT WEATHER AND/OR OBSTRUCTIONS TO VISIBILITY.
       CURRENT SKY AND/OR WEATHER CONDITIONS ARE NOT AVAILABLE FOR
       CHILLICOTHE AND FARMINGTON.

MOZ001>031-035>038-043-044-053-054-281000-
...NORTHERN AND WESTERN MISSOURI...

CITY           SKY/WX    TMP DP  RH WIND       PRES   REMARKS
KANSAS CTY INT CLOUDY    70  64  81 S9        29.97S
KANSAS C DTWN  CLOUDY    71  66  84 S8        29.98R
LEE`S SUMMIT   CLOUDY    68  63  84 S7        30.00R
ST JOSEPH      CLOUDY    70  66  87 SE9       29.94F
CHILLICOTHE      N/A     66  61  84 SE7       30.02F
KIRKSVILLE     MOCLDY    61  58  90 SE9       30.06F

$$
MOZ066>068-077>081-088>096-101>105-281000-
...SOUTHWEST MISSOURI...

CITY           SKY/WX    TMP DP  RH WIND       PRES   REMARKS
SPRINGFIELD    PTCLDY    64  59  83 S12       30.04F
JOPLIN         MOCLDY    67  62  84 S10       30.02R

$$
MOZ032>034-039>042-045>050-055>058-069>072-281000-
...CENTRAL MISSOURI...

CITY           SKY/WX    TMP DP  RH WIND       PRES   REMARKS
COLUMBIA       MOCLDY    61  59  93 SE8       30.07S
JEFFERSON CITY MOCLDY    64  59  83 E7        30.07R
ROLLA          MOCLDY    60  57  89 SE5       30.08R
SEDALIA        CLOUDY    64  60  87 SE6       30.05R
WHITEMAN AFB   PTCLDY    65  61  87 S7        30.02R
WARRENSBURG    CLOUDY    64  61  88 SE5       30.02R
OSAGE BEACH    MOCLDY    63  55  77 S3        30.07S

$$
MOZ051-052-059>065-281000-
...EAST CENTRAL MISSOURI...

CITY           SKY/WX    TMP DP  RH WIND       PRES   REMARKS
ST LOUIS INTL  MOCLDY    64  58  80 E6        30.10S
SPIRIT OF STL  CLEAR     59  58  96 CALM      30.09S
ST CHARLES     CLEAR     61  59  93 E5        30.09S

$$
MOZ072>076-082>087-097>100-106>115-281000-
...SOUTH CENTRAL AND SOUTHEAST MISSOURI...

CITY           SKY/WX    TMP DP  RH WIND       PRES   REMARKS
CAPE GIRARDEAU CLEAR     55  55 100 CALM      30.10R FOG
FARMINGTON     PTCLDY    57  55  94 CALM      30.13S
POPLAR BLUFF   CLEAR     57  56  96 CALM      30.07S
WEST PLAINS    PTCLDY    60  55  83 CALM      30.10R

$$


USA.gov is the U.S. government's official web portal to all federal, state and local government web resources and services.